Regional Weather Roundup
Issued by NWS

Home | Current Version | Previous Version | Graphics & Text | Print | Product List | Glossary On
Versions: 1 2 3 4 5 6 7 8 9 10 11 12 13 14 15 16 17 18 19 20 21 22 23 24 25 26 27 28 29 30 31 32 33 34 35 36 37 38 39 40 41 42 43 44 45 46 47 48 49 50
000
ASUS43 KMPX 260901
RWRMN
WEATHER ROUNDUP FOR MINNESOTA
NATIONAL WEATHER SERVICE TWIN CITIES/CHANHASSEN MN
400 AM CDT SUN APR 26 2015


NOTE: "FAIR" INDICATES FEW OR NO CLOUDS BELOW 12,000 FEET WITH NO
SIGNIFICANT WEATHER AND/OR OBSTRUCTIONS TO VISIBILITY. N/A MEANS
CURRENT SKY AND/OR WEATHER CONDITIONS ARE NOT AVAILABLE.

MNZ060>063-068>070-261000-
   Twin Cities Metro

CITY           SKY/WX    TMP DP  RH WIND       PRES   REMARKS
TWIN CITIES    CLEAR     39  21  48 N6        30.02R
ST PAUL        CLEAR     39  20  46 N3        30.04R
CRYSTAL        CLEAR     37  20  50 NE3       30.02R
BLAINE         CLEAR     36  23  60 NE5       30.03S
LAKEVILLE      CLEAR     36  25  64 NE3       30.01R
EDEN PRAIRIE   CLEAR     38  21  50 N6        30.01R
SOUTH ST PAUL  CLEAR     40  20  44 N5        30.02S
LAKE ELMO      FAIR      37  23  56 NE6       30.03R
$$
MNZ001>005-007-008-013>017-022>024-027-028-261000-
   Northwest Minnesota

CITY           SKY/WX    TMP DP  RH WIND       PRES   REMARKS
BEMIDJI        CLEAR     36  24  61 CALM      30.06R
HALLOCK        CLEAR     41  27  56 E8        30.04S
ROSEAU         CLEAR     36  27  69 E3        30.07R
WARROAD        CLEAR     36  28  75 SE3       30.08R
THIEF RVR FALL CLEAR     39  28  65 SE7       30.06R
CROOKSTON      CLEAR     39  30  70 SE8       30.05S
FOSSTON        CLEAR     36  23  60 SE5       30.06R
DETROIT LAKES  FAIR      39  19  45 SE6       30.06S
MOORHEAD       CLEAR     39  27  60 E3        30.04S
PARK RAPIDS    CLEAR     35  15  44 CALM      30.05R
MAHNOMEN       FAIR      36  21  55 SE5       30.05R
$$
MNZ006-009>011-018-025>026-261000-
   North Central Minnesota

CITY           SKY/WX    TMP DP  RH WIND       PRES   REMARKS
BAUDETTE       CLEAR     35  26  69 SE7       30.07R WCI  29
FLAG ISLAND    CLEAR     43  23  45 E7        30.07R
INTL FALLS     CLEAR     30  24  78 E5        30.09R WCI  25
WASKISH        CLEAR     30  27  86 CALM      30.07R
BIG FORK       CLEAR     27  18  69 CALM      30.08S
LONGVILLE      CLEAR     27  21  80 CALM      30.07R
GRAND RAPIDS   CLEAR     27  12  54 CALM      30.07S
CRANE LAKE     CLEAR     21  21 100 CALM      30.12S
ORR            CLEAR     27  16  63 CALM      30.07S
COOK           CLEAR     25  19  80 CALM      30.09S
WALKER         FAIR      38  16  40 CALM      30.05S
$$
MNZ012-019>021-037-261000-
   Northeast Minnesota

CITY           SKY/WX    TMP DP  RH WIND       PRES   REMARKS
DULUTH         CLEAR     32  12  43 NE6       30.06F WCI  26
ELY            CLEAR     21  18  86 CALM      30.09S
HIBBING        CLEAR     24  16  71 CALM      30.07F
EVELETH        CLEAR     25  21  86 CALM      30.09S
DULUTH HARBOR  CLEAR     34  28  80 CALM      30.10S
TWO HARBORS    CLEAR     36  18  48 N5        30.07S
SILVER BAY     CLEAR     25  18  74 CALM      30.07S
GRAND MARAIS     N/A     39  16  39 N8        30.08S
G MARAIS ARPRT CLEAR     27  14  59 N8        30.07S WCI  18
$$
MNZ029>031-032-039>041-046>048-054>057-064-261000-
   West Central Minnesota

CITY           SKY/WX    TMP DP  RH WIND       PRES   REMARKS
FERGUS FALLS   CLEAR     43   9  24 E8        30.05S
WHEATON        CLEAR     30  28  93 E5        30.05R WCI  25
MORRIS         CLEAR     36  27  69 E10       30.02S
ALEXANDRIA     CLEAR     36  17  46 E9        30.04S
ELBOW LAKE     FAIR      39  23  54 E10       30.03R
WADENA         FAIR      28  19  69 CALM      30.05S
GLENWOOD       CLEAR     34  23  64 NE8       30.03S WCI  27
APPLETON       CLEAR     37  30  75 E8        30.02R
BENSON         CLEAR     37  23  56 E3        30.02S
ORTONVILLE     CLEAR     37  30  75 E8        30.01S
MADISON        CLEAR     36  28  75 E5        30.01S
WILLMAR        FAIR      37  27  65 E10       30.03R
$$
MNZ033>034-036-042>043-049>051-058-059-261000-
   Central Minnesota

CITY           SKY/WX    TMP DP  RH WIND       PRES   REMARKS
ST CLOUD       CLEAR     32  22  66 CALM      30.05R
SAUK CENTRE    FAIR      35  17  49 NE5       30.05R WCI  30
PAYNESVILLE    CLEAR     32  22  68 N6        30.04S WCI  26
AITKIN         CLEAR     27  19  74 CALM      30.05S
PINE RIVER     CLEAR     30  12  47 CALM      30.09S
BRAINERD       CLEAR     30  20  66 NE3       30.06R
STAPLES        CLEAR     30  12  47 CALM      30.06R
LONG PRAIRIE   FAIR      34  14  44 NE5       30.05S WCI  30
LITTLE FALLS   CLEAR     30  18  59 CALM      30.06S
LITCHFIELD     CLEAR     36  25  64 NE6       30.03S
BUFFALO        CLEAR     36  23  59 N3        30.04S
MAPLE LAKE     CLEAR     35  25  66 N3        30.05R
$$
MNZ037-044-045-052-053-261000-
   East Central Minnesota

CITY           SKY/WX    TMP DP  RH WIND       PRES   REMARKS
PRINCETON      CLEAR     36  25  64 N5        30.05S
MORA           CLEAR     32  23  69 NE3       30.07S
CAMBRIDGE      CLEAR     36  25  64 CALM      30.03S
RUSH CITY      CLEAR     31  24  74 NE6       30.06S WCI  25
MOOSE LAKE     CLEAR     30  19  64 CALM      30.06R
HINCKLEY       FAIR      30  27  86 N5        30.07S WCI  25
CLOQUET        CLEAR     28  16  59 CALM      30.06S
MCGREGOR       CLEAR     30  19  64 N3        30.07S
$$
MNZ071>073-080-081-089-090-097-098-261000-
   Southwest Minnesota

CITY           SKY/WX    TMP DP  RH WIND       PRES   REMARKS
MONTEVIDEO     CLEAR     34  28  80 SE6       30.03R WCI  29
GRANITE FALLS  CLEAR     37  28  70 NE8       30.03R
CANBY          CLEAR     37  36  96 CALM      30.01S
MARSHALL       CLEAR     39  28  65 E8        30.00R
REDWOOD FALLS  CLEAR     39  27  62 NE6       30.01R
OLIVIA         CLEAR     32  25  74 NE6       30.01R WCI  26
PIPESTONE      CLEAR     36  34  93 NE3       29.98R
WINDOM         CLEAR     34  32  93 CALM      29.99S
WORTHINGTON    CLEAR     34  28  80 NW3       29.99S
JACKSON        CLEAR     34  32  93 N5        29.99S WCI  30
TRACY          CLEAR     39  35  85 CALM      30.00R
SLAYTON        CLEAR     32  32  99 CALM      30.00R
$$
MNZ065>067-074>077-082>085-091>093-261000-
   South Central Minnesota

CITY           SKY/WX    TMP DP  RH WIND       PRES   REMARKS
MANKATO        CLEAR     39  27  60 N7        30.00R
NEW ULM        CLEAR     39  27  60 NE9       30.00S
ST JAMES       CLEAR     36  30  80 NW3       30.01R
FAIRMONT       CLEAR     37  30  75 CALM      29.98S
GLENCOE        CLEAR     37  27  66 N6        30.01R
FARIBAULT      CLEAR     37  28  70 N6        30.00R
OWATONNA       CLEAR     36  27  69 CALM      29.99R
WASECA         CLEAR     39  30  70 NE9       30.00R
ALBERT LEA     CLEAR     34  34 100 CALM      29.98R FOG
$$
MNZ078>079-086>088-094>096-261000-
   Southeast Minnesota

CITY           SKY/WX    TMP DP  RH WIND       PRES   REMARKS
ROCHESTER      CLEAR     36  21  54 SE9       29.99R
RED WING       CLEAR     39  21  48 CALM      30.01R
STANTON        CLEAR     35  28  75 NE5       29.99S WCI  31
DODGE CENTER   CLEAR     36  30  80 E3        29.99R
WINONA         CLEAR     34  30  86 CALM      30.02R
AUSTIN         CLEAR     36  30  80 CALM      29.99R
PRESTON        CLEAR     37  22  55 E5        29.99S
$$
ABBREVIATIONS USED IN REMARKS
   TC - TEMPERATURES IN CELSIUS
  WCI - WIND CHILL INDEX
   HX - HEAT INDEX
  VSB - VISIBILITY
$$



USA.gov is the U.S. government's official web portal to all federal, state and local government web resources and services.